Retour au catalogue

STARLINK-4588

ActifCommunicationsVLEO
NORAD 53641·PAYLOAD·🇺🇸 United States

Lancé Aug 28, 2022 depuis Cape Canaveral Space Force Station

Loading…

Prochains Passages (prochaines 24 heures)

TLE

FraisSource: CelesTrak SupGP

Époque: Sep 15, 2026, 01:16 UTC

1 53641C 22104BF  26258.05326389  .00009448  00000+0  30380-3 0  2586
2 53641  53.1569  83.1936 0001400  87.1133  84.9491 15.31699683    15

Suivez STARLINK-4588 en temps réel avec AllMySat

Download on the App Store